This is the latest recevied weather packets stored in our database for station/object N2WH. If no packets are shown the sender has not sent any weather packets the latest 10 day(s).
| Time | Temp. | Humidity | Pressure | Rain* | Wind** | Luminosity | Snow |
|---|---|---|---|---|---|---|---|
| 1777589024 | 13.89° C | 64% | 1008.6 hPa | 0 mm | - | 23 W/m² | - |
| 1777588720 | 13.89° C | 63% | 1008.5 hPa | 0 mm | - | 25 W/m² | - |
| 1777588416 | 13.89° C | 63% | 1008.5 hPa | 0 mm | - | 26 W/m² | - |
| 1777588106 | 13.89° C | 63% | 1008.6 hPa | 0 mm | - | 27 W/m² | - |
| 1777587802 | 13.89° C | 62% | 1008.4 hPa | 0 mm | - | 29 W/m² | - |
| 1777587501 | 13.89° C | 64% | 1008.6 hPa | 0 mm | - | 31 W/m² | - |
| 1777587198 | 13.89° C | 64% | 1008.6 hPa | 0 mm | - | 33 W/m² | - |
| 1777586893 | 13.89° C | 64% | 1008.4 hPa | 0 mm | - | 41 W/m² | - |
| 1777586589 | 13.89° C | 64% | 1008.6 hPa | 0 mm | - | 58 W/m² | - |
| 1777586285 | 13.89° C | 63% | 1008.7 hPa | 0 mm | - | 70 W/m² | - |
| 1777585983 | 13.89° C | 66% | 1008.7 hPa | 0 mm | - | 69 W/m² | - |
| 1777585677 | 13.89° C | 65% | 1008.4 hPa | 0 mm | - | 64 W/m² | - |
| 1777585373 | 13.89° C | 66% | 1008.4 hPa | 0 mm | - | 91 W/m² | - |
| 1777585068 | 13.89° C | 66% | 1008.5 hPa | 0 mm | - | 78 W/m² | - |
| 1777584764 | 13.89° C | 66% | 1008.6 hPa | 0 mm | - | 81 W/m² | - |
| 1777584462 | 13.89° C | 65% | 1008.4 hPa | 0 mm | - | 100 W/m² | - |
| 1777584159 | 14.44° C | 65% | 1008.4 hPa | 0 mm | - | 91 W/m² | - |
| 1777583858 | 14.44° C | 64% | 1008.4 hPa | 0 mm | - | 107 W/m² | - |
| 1777583554 | 14.44° C | 64% | 1008.1 hPa | 0 mm | - | 127 W/m² | - |
| 1777583253 | 14.44° C | 65% | 1008.3 hPa | 0 mm | - | 131 W/m² | - |
| 1777582953 | 15° C | 66% | 1008.1 hPa | 0 mm | - | 104 W/m² | - |
| 1777582651 | 14.44° C | 68% | 1008.3 hPa | 0 mm | - | 171 W/m² | - |
| 1777582346 | 14.44° C | 68% | 1008.2 hPa | 0 mm | - | 163 W/m² | - |
| 1777582044 | 13.89° C | 69% | 1007.9 hPa | 0 mm | - | 161 W/m² | - |
| 1777581739 | 13.89° C | 70% | 1007.8 hPa | 0 mm | - | 157 W/m² | - |
* Rain latest hour (hover to see other rain measurements)
** Current wind speed in m/s (hover to see current wind gust speed)